Time,TemperatureF,DewpointF,PressureIn,WindDirection,WindDirectionDegrees,WindSpeedMPH,WindSpeedGustMPH,Humidity,HourlyPrecipIn,Conditions,Clouds,dailyrainin,SoftwareType,DateUTC
2013-06-21 00:00:00,61.6,55.4,30.26,SSW,192,0.0,1.0,80,0.00,,---,0.00,VWS V14.01,2013-06-21 04:00:00,
2013-06-21 00:01:00,61.6,55.4,30.26,SSW,192,0.0,0.0,80,0.00,,---,0.00,VWS V14.01,2013-06-21 04:01:00,
2013-06-21 00:05:00,61.6,55.4,30.26,SSW,192,0.0,0.0,80,0.00,,---,0.00,VWS V14.01,2013-06-21 04:05:00,
2013-06-21 00:06:00,61.6,55.4,30.26,SSW,192,0.0,0.0,80,0.00,,---,0.00,VWS V14.01,2013-06-21 04:06:00,
2013-06-21 00:10:00,61.6,55.7,30.26,SSW,192,0.0,1.0,81,0.00,,---,0.00,VWS V14.01,2013-06-21 04:10:00,
2013-06-21 00:11:00,61.6,55.7,30.26,SSW,192,0.0,0.0,81,0.00,,---,0.00,VWS V14.01,2013-06-21 04:11:00,
2013-06-21 00:15:00,61.6,55.7,30.26,SSW,192,0.0,0.0,81,0.00,,---,0.00,VWS V14.01,2013-06-21 04:15:00,
2013-06-21 00:16:00,61.5,55.6,30.26,SSW,192,0.0,0.0,81,0.00,,---,0.00,VWS V14.01,2013-06-21 04:16:00,
2013-06-21 00:20:00,61.4,55.9,30.26,SSW,192,0.0,0.0,82,0.00,,---,0.00,VWS V14.01,2013-06-21 04:20:00,
2013-06-21 00:21:00,61.3,55.8,30.26,SSW,192,0.0,0.0,82,0.00,,---,0.00,VWS V14.01,2013-06-21 04:21:00,
2013-06-21 00:25:00,61.0,55.8,30.26,SSW,192,0.0,0.0,83,0.00,,---,0.00,VWS V14.01,2013-06-21 04:25:00,
2013-06-21 00:26:00,60.9,55.7,30.26,SSW,192,0.0,0.0,83,0.00,,---,0.00,VWS V14.01,2013-06-21 04:26:00,
2013-06-21 00:30:00,60.7,55.8,30.27,SSW,192,0.0,0.0,84,0.00,,---,0.00,VWS V14.01,2013-06-21 04:30:00,
2013-06-21 00:31:00,60.7,55.8,30.27,SSW,192,0.0,0.0,84,0.00,,---,0.00,VWS V14.01,2013-06-21 04:31:00,
2013-06-21 00:35:00,60.5,55.7,30.27,SSW,192,0.0,0.0,84,0.00,,---,0.00,VWS V14.01,2013-06-21 04:35:00,
2013-06-21 00:36:00,60.4,55.5,30.26,SSW,192,0.0,0.0,84,0.00,,---,0.00,VWS V14.01,2013-06-21 04:36:00,
2013-06-21 00:40:00,60.1,55.3,30.27,SSW,192,0.0,0.0,84,0.00,,---,0.00,VWS V14.01,2013-06-21 04:40:00,
2013-06-21 00:41:00,60.1,55.6,30.27,SSW,192,0.0,0.0,85,0.00,,---,0.00,VWS V14.01,2013-06-21 04:41:00,
2013-06-21 00:45:00,60.0,55.5,30.27,SSW,192,0.0,1.0,85,0.00,,---,0.00,VWS V14.01,2013-06-21 04:45:00,
2013-06-21 00:46:00,60.0,55.5,30.26,SSW,192,0.0,0.0,85,0.00,,---,0.00,VWS V14.01,2013-06-21 04:46:00,
2013-06-21 00:50:00,59.9,55.4,30.27,SSW,192,0.0,0.0,85,0.00,,---,0.00,VWS V14.01,2013-06-21 04:50:00,
2013-06-21 00:51:00,59.9,55.4,30.27,SSW,192,0.0,0.0,85,0.00,,---,0.00,VWS V14.01,2013-06-21 04:51:00,
2013-06-21 00:55:00,59.7,55.5,30.27,SSW,192,0.0,0.0,86,0.00,,---,0.00,VWS V14.01,2013-06-21 04:55:00,
2013-06-21 00:56:00,59.7,55.5,30.27,SSW,192,1.0,1.0,86,0.00,,---,0.00,VWS V14.01,2013-06-21 04:56:00,
2013-06-21 01:00:00,59.7,55.8,30.27,SSW,192,0.0,1.0,87,0.00,,---,0.00,VWS V14.01,2013-06-21 05:00:00,
2013-06-21 01:01:00,59.7,55.8,30.28,SSW,192,0.0,0.0,87,0.00,,---,0.00,VWS V14.01,2013-06-21 05:01:00,
2013-06-21 01:05:00,59.6,55.7,30.28,SSW,192,0.0,0.0,87,0.00,,---,0.00,VWS V14.01,2013-06-21 05:05:00,
2013-06-21 01:06:00,59.5,55.6,30.28,SSW,192,0.0,0.0,87,0.00,,---,0.00,VWS V14.01,2013-06-21 05:06:00,
2013-06-21 01:10:00,59.3,55.4,30.28,SSW,192,0.0,1.0,87,0.00,,---,0.00,VWS V14.01,2013-06-21 05:10:00,
2013-06-21 01:11:00,59.3,55.8,30.28,SSW,192,0.0,0.0,88,0.00,,---,0.00,VWS V14.01,2013-06-21 05:11:00,
2013-06-21 01:15:00,59.3,55.8,30.28,SSW,192,0.0,2.0,88,0.00,,---,0.00,VWS V14.01,2013-06-21 05:15:00,
2013-06-21 01:16:00,59.3,55.8,30.28,SSW,192,1.0,1.0,88,0.00,,---,0.00,VWS V14.01,2013-06-21 05:16:00,
2013-06-21 01:20:00,59.2,55.7,30.28,SSW,192,0.0,1.0,88,0.00,,---,0.00,VWS V14.01,2013-06-21 05:20:00,
2013-06-21 01:21:00,59.1,55.5,30.28,SSW,192,0.0,1.0,88,0.00,,---,0.00,VWS V14.01,2013-06-21 05:21:00,
2013-06-21 01:25:00,59.0,55.5,30.28,SSW,192,0.0,1.0,88,0.00,,---,0.00,VWS V14.01,2013-06-21 05:25:00,
2013-06-21 01:26:00,59.0,55.8,30.28,SSW,192,0.0,0.0,89,0.00,,---,0.00,VWS V14.01,2013-06-21 05:26:00,
2013-06-21 01:30:00,58.9,55.7,30.28,SSW,192,0.0,0.0,89,0.00,,---,0.00,VWS V14.01,2013-06-21 05:30:00,
2013-06-21 01:35:00,59.0,55.8,30.28,SSW,192,0.0,0.0,89,0.00,,---,0.00,VWS V14.01,2013-06-21 05:35:00,
2013-06-21 01:40:00,58.8,55.9,30.28,SSW,192,1.0,1.0,90,0.00,,---,0.00,VWS V14.01,2013-06-21 05:40:00,
2013-06-21 01:45:00,58.8,55.9,30.28,SSW,208,0.0,2.0,90,0.00,,---,0.00,VWS V14.01,2013-06-21 05:45:00,
2013-06-21 01:50:00,58.8,56.2,30.28,SSW,208,1.0,2.0,91,0.00,,---,0.00,VWS V14.01,2013-06-21 05:50:00,
2013-06-21 01:55:00,58.8,56.2,30.28,SSW,208,0.0,0.0,91,0.00,,---,0.00,VWS V14.01,2013-06-21 05:55:00,
2013-06-21 02:00:00,58.6,56.0,30.28,SSW,208,0.0,0.0,91,0.00,,---,0.00,VWS V14.01,2013-06-21 06:00:00,
2013-06-21 02:05:00,58.5,55.9,30.28,SSW,209,1.0,2.0,91,0.00,,---,0.00,VWS V14.01,2013-06-21 06:05:00,
2013-06-21 02:10:00,58.4,55.8,30.28,SSW,209,0.0,0.0,91,0.00,,---,0.00,VWS V14.01,2013-06-21 06:10:00,
2013-06-21 02:15:00,58.1,55.8,30.28,SSW,209,1.0,1.0,92,0.00,,---,0.00,VWS V14.01,2013-06-21 06:15:00,
2013-06-21 02:20:00,58.1,55.8,30.28,SSW,209,0.0,1.0,92,0.00,,---,0.00,VWS V14.01,2013-06-21 06:20:00,
2013-06-21 02:25:00,58.1,55.8,30.28,SSW,209,0.0,0.0,92,0.00,,---,0.00,VWS V14.01,2013-06-21 06:25:00,
2013-06-21 02:30:00,57.9,55.6,30.28,SSW,209,0.0,0.0,92,0.00,,---,0.00,VWS V14.01,2013-06-21 06:30:00,
2013-06-21 02:35:00,57.7,55.4,30.28,SSW,208,0.0,0.0,92,0.00,,---,0.00,VWS V14.01,2013-06-21 06:35:00,
2013-06-21 02:40:00,57.6,55.3,30.27,SSW,208,0.0,0.0,92,0.00,,---,0.00,VWS V14.01,2013-06-21 06:40:00,
2013-06-21 02:45:00,57.4,55.1,30.28,SSW,208,0.0,0.0,92,0.00,,---,0.00,VWS V14.01,2013-06-21 06:45:00,
2013-06-21 02:50:00,57.1,54.8,30.28,SSW,209,0.0,0.0,92,0.00,,---,0.00,VWS V14.01,2013-06-21 06:50:00,
2013-06-21 02:55:00,56.8,54.5,30.27,SSW,209,0.0,0.0,92,0.00,,---,0.00,VWS V14.01,2013-06-21 06:55:00,
2013-06-21 03:00:00,56.8,54.5,30.27,SSW,209,0.0,0.0,92,0.00,,---,0.00,VWS V14.01,2013-06-21 07:00:00,
2013-06-21 03:05:00,56.8,54.5,30.27,SSW,209,0.0,0.0,92,0.00,,---,0.00,VWS V14.01,2013-06-21 07:05:00,
2013-06-21 03:10:00,56.7,54.7,30.27,SSW,209,0.0,0.0,93,0.00,,---,0.00,VWS V14.01,2013-06-21 07:10:00,
2013-06-21 03:15:00,56.7,54.7,30.27,SSW,208,0.0,0.0,93,0.00,,---,0.00,VWS V14.01,2013-06-21 07:15:00,
2013-06-21 03:20:00,56.6,54.6,30.27,SSW,209,0.0,0.0,93,0.00,,---,0.00,VWS V14.01,2013-06-21 07:20:00,
2013-06-21 03:25:00,56.5,54.5,30.27,SSW,209,0.0,0.0,93,0.00,,---,0.00,VWS V14.01,2013-06-21 07:25:00,
2013-06-21 03:30:00,56.4,54.4,30.27,SSW,209,0.0,0.0,93,0.00,,---,0.00,VWS V14.01,2013-06-21 07:30:00,
2013-06-21 03:35:00,56.2,54.2,30.27,SSW,208,0.0,0.0,93,0.00,,---,0.00,VWS V14.01,2013-06-21 07:35:00,
2013-06-21 03:40:00,56.3,54.3,30.27,SSW,209,0.0,1.0,93,0.00,,---,0.00,VWS V14.01,2013-06-21 07:40:00,
2013-06-21 03:45:00,56.3,54.3,30.28,SSW,209,0.0,0.0,93,0.00,,---,0.00,VWS V14.01,2013-06-21 07:45:00,
2013-06-21 03:50:00,56.4,54.7,30.27,SSW,208,0.0,0.0,94,0.00,,---,0.00,VWS V14.01,2013-06-21 07:50:00,
2013-06-21 03:55:00,56.4,54.7,30.27,SSW,209,0.0,0.0,94,0.00,,---,0.00,VWS V14.01,2013-06-21 07:55:00,
2013-06-21 04:00:00,56.3,54.6,30.28,SSW,208,0.0,0.0,94,0.00,,---,0.00,VWS V14.01,2013-06-21 08:00:00,
2013-06-21 04:05:00,56.2,54.5,30.27,SSW,208,0.0,0.0,94,0.00,,---,0.00,VWS V14.01,2013-06-21 08:05:00,
2013-06-21 04:10:00,56.2,54.5,30.27,SSW,209,0.0,1.0,94,0.00,,---,0.00,VWS V14.01,2013-06-21 08:10:00,
2013-06-21 04:15:00,56.1,54.4,30.27,SSW,208,0.0,0.0,94,0.00,,---,0.00,VWS V14.01,2013-06-21 08:15:00,
2013-06-21 04:20:00,56.0,54.3,30.27,SSW,208,0.0,0.0,94,0.00,,---,0.00,VWS V14.01,2013-06-21 08:20:00,
2013-06-21 04:25:00,55.9,54.2,30.27,SSW,208,0.0,0.0,94,0.00,,---,0.00,VWS V14.01,2013-06-21 08:25:00,
2013-06-21 04:30:00,55.9,54.2,30.27,SSW,209,0.0,0.0,94,0.00,,---,0.00,VWS V14.01,2013-06-21 08:30:00,
2013-06-21 04:35:00,55.8,54.4,30.27,SSW,209,0.0,0.0,95,0.00,,---,0.00,VWS V14.01,2013-06-21 08:35:00,
2013-06-21 04:40:00,55.7,54.3,30.27,SSW,209,0.0,0.0,95,0.00,,---,0.00,VWS V14.01,2013-06-21 08:40:00,
2013-06-21 04:45:00,55.5,53.8,30.27,SSW,209,0.0,0.0,94,0.00,,---,0.00,VWS V14.01,2013-06-21 08:45:00,
2013-06-21 04:50:00,55.5,54.1,30.27,SSW,209,0.0,0.0,95,0.00,,---,0.00,VWS V14.01,2013-06-21 08:50:00,
2013-06-21 04:55:00,55.6,54.2,30.27,SSW,209,0.0,0.0,95,0.00,,---,0.00,VWS V14.01,2013-06-21 08:55:00,
2013-06-21 05:00:00,55.6,54.2,30.27,SSW,209,0.0,0.0,95,0.00,,---,0.00,VWS V14.01,2013-06-21 09:00:00,
2013-06-21 05:05:00,55.6,54.2,30.27,SSW,209,0.0,0.0,95,0.00,,---,0.00,VWS V14.01,2013-06-21 09:05:00,
2013-06-21 05:10:00,55.6,54.2,30.27,SSW,209,0.0,0.0,95,0.00,,---,0.00,VWS V14.01,2013-06-21 09:10:00,
2013-06-21 05:15:00,55.7,54.3,30.27,SSW,208,0.0,0.0,95,0.00,,---,0.00,VWS V14.01,2013-06-21 09:15:00,
2013-06-21 05:20:00,55.7,54.3,30.27,SSW,209,0.0,0.0,95,0.00,,---,0.00,VWS V14.01,2013-06-21 09:20:00,
2013-06-21 05:25:00,55.5,54.1,30.27,SSW,209,0.0,0.0,95,0.00,,---,0.00,VWS V14.01,2013-06-21 09:25:00,
2013-06-21 05:30:00,55.5,54.1,30.27,SSW,209,0.0,0.0,95,0.00,,---,0.00,VWS V14.01,2013-06-21 09:30:00,
2013-06-21 05:35:00,55.7,54.3,30.27,SSW,209,0.0,0.0,95,0.00,,---,0.00,VWS V14.01,2013-06-21 09:35:00,
2013-06-21 05:40:00,55.9,54.8,30.27,WSW,244,1.0,1.0,96,0.00,,---,0.00,VWS V14.01,2013-06-21 09:40:00,
2013-06-21 05:45:00,55.9,54.5,30.27,WSW,244,0.0,0.0,95,0.00,,---,0.00,VWS V14.01,2013-06-21 09:45:00,
2013-06-21 05:50:00,56.0,54.9,30.27,WSW,244,0.0,0.0,96,0.00,,---,0.00,VWS V14.01,2013-06-21 09:50:00,
2013-06-21 05:55:00,56.2,54.8,30.27,WSW,244,0.0,0.0,95,0.00,,---,0.00,VWS V14.01,2013-06-21 09:55:00,
2013-06-21 06:00:00,56.2,54.8,30.28,WSW,244,0.0,0.0,95,0.00,,---,0.00,VWS V14.01,2013-06-21 10:00:00,
2013-06-21 06:05:00,56.2,54.8,30.28,WSW,244,0.0,0.0,95,0.00,,---,0.00,VWS V14.01,2013-06-21 10:05:00,
2013-06-21 06:10:00,56.3,54.9,30.28,WSW,244,0.0,0.0,95,0.00,,---,0.00,VWS V14.01,2013-06-21 10:10:00,
2013-06-21 06:15:00,56.5,55.4,30.28,WSW,244,0.0,0.0,96,0.00,,---,0.00,VWS V14.01,2013-06-21 10:15:00,
2013-06-21 06:20:00,56.7,55.6,30.28,WSW,244,0.0,0.0,96,0.00,,---,0.00,VWS V14.01,2013-06-21 10:20:00,
2013-06-21 06:25:00,57.1,56.0,30.28,WSW,244,0.0,0.0,96,0.00,,---,0.00,VWS V14.01,2013-06-21 10:25:00,
2013-06-21 06:30:00,57.4,56.3,30.28,WSW,244,0.0,0.0,96,0.00,,---,0.00,VWS V14.01,2013-06-21 10:30:00,
2013-06-21 06:35:00,57.7,56.3,30.28,WSW,244,0.0,0.0,95,0.00,,---,0.00,VWS V14.01,2013-06-21 10:35:00,
2013-06-21 06:40:00,58.0,56.9,30.28,WSW,244,0.0,0.0,96,0.00,,---,0.00,VWS V14.01,2013-06-21 10:40:00,
2013-06-21 06:45:00,58.3,56.9,30.28,WSW,244,0.0,0.0,95,0.00,,---,0.00,VWS V14.01,2013-06-21 10:45:00,
2013-06-21 06:50:00,58.7,57.3,30.28,WSW,244,1.0,1.0,95,0.00,,---,0.00,VWS V14.01,2013-06-21 10:50:00,
2013-06-21 06:54:00,59.2,57.8,30.29,WSW,244,0.0,0.0,95,0.00,,---,0.00,VWS V14.01,2013-06-21 10:54:00,
2013-06-21 06:55:00,59.2,57.8,30.29,WSW,244,0.0,2.0,95,0.00,,---,0.00,VWS V14.01,2013-06-21 10:55:00,
2013-06-21 06:59:00,59.9,58.2,30.29,WSW,244,0.0,0.0,94,0.00,,---,0.00,VWS V14.01,2013-06-21 10:59:00,
2013-06-21 07:00:00,59.9,58.2,30.29,WSW,244,0.0,1.0,94,0.00,,---,0.00,VWS V14.01,2013-06-21 11:00:00,
2013-06-21 07:04:00,60.6,58.6,30.29,WSW,244,0.0,1.0,93,0.00,,---,0.00,VWS V14.01,2013-06-21 11:04:00,
2013-06-21 07:05:00,60.6,58.6,30.29,WSW,244,0.0,2.0,93,0.00,,---,0.00,VWS V14.01,2013-06-21 11:05:00,
2013-06-21 07:09:00,61.5,58.8,30.29,WSW,244,1.0,1.0,91,0.00,,---,0.00,VWS V14.01,2013-06-21 11:09:00,
2013-06-21 07:10:00,61.5,58.8,30.29,WSW,244,0.0,2.0,91,0.00,,---,0.00,VWS V14.01,2013-06-21 11:10:00,
2013-06-21 07:14:00,62.2,58.9,30.29,WSW,244,0.0,0.0,89,0.00,,---,0.00,VWS V14.01,2013-06-21 11:14:00,
2013-06-21 07:15:00,62.2,58.9,30.29,WSW,244,0.0,1.0,89,0.00,,---,0.00,VWS V14.01,2013-06-21 11:15:00,
2013-06-21 07:19:00,62.7,58.5,30.29,WSW,244,0.0,0.0,86,0.00,,---,0.00,VWS V14.01,2013-06-21 11:19:00,
2013-06-21 07:20:00,62.7,58.8,30.29,WSW,244,0.0,4.0,87,0.00,,---,0.00,VWS V14.01,2013-06-21 11:20:00,
2013-06-21 07:24:00,63.4,59.2,30.29,WSW,244,1.0,2.0,86,0.00,,---,0.00,VWS V14.01,2013-06-21 11:24:00,
2013-06-21 07:25:00,63.3,59.0,30.29,WSW,244,2.0,4.0,86,0.00,,---,0.00,VWS V14.01,2013-06-21 11:25:00,
2013-06-21 07:29:00,63.8,58.9,30.29,WSW,254,0.0,1.0,84,0.00,,---,0.00,VWS V14.01,2013-06-21 11:29:00,
2013-06-21 07:30:00,63.7,58.8,30.29,WSW,254,0.0,3.0,84,0.00,,---,0.00,VWS V14.01,2013-06-21 11:30:00,
2013-06-21 07:34:00,64.4,59.5,30.29,WSW,254,2.0,2.0,84,0.00,,---,0.00,VWS V14.01,2013-06-21 11:34:00,
2013-06-21 07:35:00,64.4,59.5,30.29,WSW,254,1.0,3.0,84,0.00,,---,0.00,VWS V14.01,2013-06-21 11:35:00,
2013-06-21 07:39:00,65.0,59.4,30.30,WSW,254,1.0,2.0,82,0.00,,---,0.00,VWS V14.01,2013-06-21 11:39:00,
2013-06-21 07:40:00,65.0,59.4,30.29,WSW,254,2.0,3.0,82,0.00,,---,0.00,VWS V14.01,2013-06-21 11:40:00,
2013-06-21 07:44:00,65.4,59.4,30.30,WSW,254,2.0,2.0,81,0.00,,---,0.00,VWS V14.01,2013-06-21 11:44:00,
2013-06-21 07:45:00,65.4,59.4,30.30,WSW,254,1.0,3.0,81,0.00,,---,0.00,VWS V14.01,2013-06-21 11:45:00,
2013-06-21 07:49:00,65.9,59.6,30.30,WSW,254,2.0,2.0,80,0.00,,---,0.00,VWS V14.01,2013-06-21 11:49:00,
2013-06-21 07:50:00,65.8,59.5,30.30,WSW,254,1.0,3.0,80,0.00,,---,0.00,VWS V14.01,2013-06-21 11:50:00,
2013-06-21 07:54:00,66.2,59.5,30.30,WNW,282,1.0,1.0,79,0.00,,---,0.00,VWS V14.01,2013-06-21 11:54:00,
2013-06-21 07:55:00,66.2,59.5,30.30,WNW,282,1.0,5.0,79,0.00,,---,0.00,VWS V14.01,2013-06-21 11:55:00,
2013-06-21 07:59:00,66.6,60.2,30.30,West,281,1.0,1.0,80,0.00,,---,0.00,VWS V14.01,2013-06-21 11:59:00,
2013-06-21 08:00:00,66.6,60.2,30.30,West,281,1.0,3.0,80,0.00,,---,0.00,VWS V14.01,2013-06-21 12:00:00,
2013-06-21 08:04:00,66.9,60.2,30.30,West,280,3.0,3.0,79,0.00,,---,0.00,VWS V14.01,2013-06-21 12:04:00,
2013-06-21 08:05:00,66.9,60.2,30.30,West,280,3.0,4.0,79,0.00,,---,0.00,VWS V14.01,2013-06-21 12:05:00,
2013-06-21 08:09:00,67.2,59.4,30.30,West,275,2.0,2.0,76,0.00,,---,0.00,VWS V14.01,2013-06-21 12:09:00,
2013-06-21 08:10:00,67.2,59.4,30.30,West,275,1.0,6.0,76,0.00,,---,0.00,VWS V14.01,2013-06-21 12:10:00,
2013-06-21 08:14:00,67.5,59.7,30.30,West,274,0.0,2.0,76,0.00,,---,0.00,VWS V14.01,2013-06-21 12:14:00,
2013-06-21 08:15:00,67.5,59.7,30.30,West,274,2.0,4.0,76,0.00,,---,0.00,VWS V14.01,2013-06-21 12:15:00,
2013-06-21 08:19:00,67.7,59.9,30.31,West,275,0.0,1.0,76,0.00,,---,0.00,VWS V14.01,2013-06-21 12:19:00,
2013-06-21 08:20:00,67.7,59.9,30.30,West,275,1.0,6.0,76,0.00,,---,0.00,VWS V14.01,2013-06-21 12:20:00,
2013-06-21 08:24:00,68.0,59.8,30.30,West,275,1.0,2.0,75,0.00,,---,0.00,VWS V14.01,2013-06-21 12:24:00,
2013-06-21 08:25:00,68.0,59.4,30.30,West,275,2.0,5.0,74,0.00,,---,0.00,VWS V14.01,2013-06-21 12:25:00,
2013-06-21 08:29:00,68.3,59.3,30.30,West,275,4.0,4.0,73,0.00,,---,0.00,VWS V14.01,2013-06-21 12:29:00,
2013-06-21 08:30:00,68.3,59.3,30.30,West,275,4.0,4.0,73,0.00,,---,0.00,VWS V14.01,2013-06-21 12:30:00,
2013-06-21 08:34:00,68.8,59.0,30.30,NNW,338,1.0,1.0,71,0.00,,---,0.00,VWS V14.01,2013-06-21 12:34:00,
2013-06-21 08:35:00,68.8,59.0,30.30,NNW,338,1.0,4.0,71,0.00,,---,0.00,VWS V14.01,2013-06-21 12:35:00,
2013-06-21 08:39:00,69.0,58.0,30.31,WNW,285,5.0,5.0,68,0.00,,---,0.00,VWS V14.01,2013-06-21 12:39:00,
2013-06-21 08:40:00,69.0,58.0,30.31,West,276,4.0,4.0,68,0.00,,---,0.00,VWS V14.01,2013-06-21 12:40:00,
2013-06-21 08:44:00,69.3,57.5,30.31,WNW,295,2.0,2.0,66,0.00,,---,0.00,VWS V14.01,2013-06-21 12:44:00,
2013-06-21 08:45:00,69.3,57.5,30.31,WNW,295,2.0,5.0,66,0.00,,---,0.00,VWS V14.01,2013-06-21 12:45:00,
2013-06-21 08:49:00,69.6,57.8,30.31,WNW,300,2.0,2.0,66,0.00,,---,0.00,VWS V14.01,2013-06-21 12:49:00,
2013-06-21 08:50:00,69.6,57.8,30.31,WNW,300,2.0,6.0,66,0.00,,---,0.00,VWS V14.01,2013-06-21 12:50:00,
2013-06-21 08:54:00,70.1,58.2,30.31,WNW,300,1.0,5.0,66,0.00,,---,0.00,VWS V14.01,2013-06-21 12:54:00,
2013-06-21 08:55:00,70.1,58.2,30.31,WNW,300,1.0,5.0,66,0.00,,---,0.00,VWS V14.01,2013-06-21 12:55:00,
2013-06-21 08:59:00,70.4,56.8,30.30,WNW,300,1.0,3.0,62,0.00,,---,0.00,VWS V14.01,2013-06-21 12:59:00,
2013-06-21 09:00:00,70.4,57.2,30.30,WNW,300,1.0,3.0,63,0.00,,---,0.00,VWS V14.01,2013-06-21 13:00:00,
2013-06-21 09:04:00,70.8,57.6,30.30,WNW,300,2.0,3.0,63,0.00,,---,0.00,VWS V14.01,2013-06-21 13:04:00,
2013-06-21 09:05:00,70.8,57.6,30.30,WNW,300,3.0,3.0,63,0.00,,---,0.00,VWS V14.01,2013-06-21 13:05:00,
2013-06-21 09:09:00,71.2,57.5,30.30,WNW,300,2.0,5.0,62,0.00,,---,0.00,VWS V14.01,2013-06-21 13:09:00,
2013-06-21 09:10:00,71.2,57.5,30.30,WNW,300,2.0,5.0,62,0.00,,---,0.00,VWS V14.01,2013-06-21 13:10:00,
2013-06-21 09:14:00,71.7,57.5,30.30,WNW,300,2.0,4.0,61,0.00,,---,0.00,VWS V14.01,2013-06-21 13:14:00,
2013-06-21 09:15:00,71.7,57.5,30.30,WNW,298,2.0,4.0,61,0.00,,---,0.00,VWS V14.01,2013-06-21 13:15:00,
2013-06-21 09:19:00,71.9,56.3,30.30,WNW,298,2.0,5.0,58,0.00,,---,0.00,VWS V14.01,2013-06-21 13:19:00,
2013-06-21 09:20:00,71.9,56.3,30.30,WNW,298,3.0,5.0,58,0.00,,---,0.00,VWS V14.01,2013-06-21 13:20:00,
2013-06-21 09:24:00,72.1,56.0,30.30,NW,306,3.0,6.0,57,0.00,,---,0.00,VWS V14.01,2013-06-21 13:24:00,
2013-06-21 09:25:00,72.1,56.0,30.30,NW,306,2.0,6.0,57,0.00,,---,0.00,VWS V14.01,2013-06-21 13:25:00,
2013-06-21 09:29:00,72.3,55.7,30.30,NW,304,4.0,5.0,56,0.00,,---,0.00,VWS V14.01,2013-06-21 13:29:00,
2013-06-21 09:30:00,72.3,56.7,30.30,NW,304,5.0,5.0,58,0.00,,---,0.00,VWS V14.01,2013-06-21 13:30:00,
2013-06-21 09:34:00,72.4,55.8,30.29,NW,304,2.0,5.0,56,0.00,,---,0.00,VWS V14.01,2013-06-21 13:34:00,
2013-06-21 09:35:00,72.4,55.8,30.29,NW,304,2.0,5.0,56,0.00,,---,0.00,VWS V14.01,2013-06-21 13:35:00,
2013-06-21 09:39:00,72.7,55.1,30.29,NW,304,0.0,5.0,54,0.00,,---,0.00,VWS V14.01,2013-06-21 13:39:00,
2013-06-21 09:40:00,72.7,55.1,30.29,NW,304,0.0,5.0,54,0.00,,---,0.00,VWS V14.01,2013-06-21 13:40:00,
2013-06-21 09:44:00,72.8,55.2,30.29,NW,304,0.0,4.0,54,0.00,,---,0.00,VWS V14.01,2013-06-21 13:44:00,
2013-06-21 09:45:00,72.8,55.2,30.29,NW,304,0.0,4.0,54,0.00,,---,0.00,VWS V14.01,2013-06-21 13:45:00,
2013-06-21 09:49:00,73.0,55.4,30.29,NW,304,0.0,2.0,54,0.00,,---,0.00,VWS V14.01,2013-06-21 13:49:00,
2013-06-21 09:50:00,73.0,55.4,30.29,NW,304,0.0,2.0,54,0.00,,---,0.00,VWS V14.01,2013-06-21 13:50:00,
2013-06-21 09:54:00,74.2,57.5,30.28,WNW,300,3.0,4.0,56,0.00,,---,0.00,VWS V14.01,2013-06-21 13:54:00,
2013-06-21 09:55:00,74.2,57.5,30.28,WNW,294,2.0,4.0,56,0.00,,---,0.00,VWS V14.01,2013-06-21 13:55:00,
2013-06-21 09:59:00,74.2,56.5,30.28,WNW,294,0.0,2.0,54,0.00,,---,0.00,VWS V14.01,2013-06-21 13:59:00,
2013-06-21 10:00:00,74.2,56.5,30.28,WNW,294,0.0,2.0,54,0.00,,---,0.00,VWS V14.01,2013-06-21 14:00:00,
2013-06-21 10:04:00,74.4,57.2,30.28,WNW,294,0.0,3.0,55,0.00,,---,0.00,VWS V14.01,2013-06-21 14:04:00,
2013-06-21 10:05:00,74.4,57.2,30.28,WNW,294,0.0,3.0,55,0.00,,---,0.00,VWS V14.01,2013-06-21 14:05:00,
2013-06-21 10:09:00,74.7,56.5,30.28,WNW,294,3.0,3.0,53,0.00,,---,0.00,VWS V14.01,2013-06-21 14:09:00,
2013-06-21 10:10:00,74.7,56.5,30.28,WNW,294,3.0,3.0,53,0.00,,---,0.00,VWS V14.01,2013-06-21 14:10:00,
2013-06-21 10:14:00,74.9,57.7,30.28,WNW,294,3.0,5.0,55,0.00,,---,0.00,VWS V14.01,2013-06-21 14:14:00,
2013-06-21 10:15:00,74.9,57.7,30.28,WNW,294,3.0,5.0,55,0.00,,---,0.00,VWS V14.01,2013-06-21 14:15:00,
2013-06-21 10:19:00,75.1,56.3,30.28,WNW,294,2.0,5.0,52,0.00,,---,0.00,VWS V14.01,2013-06-21 14:19:00,
2013-06-21 10:20:00,75.1,56.3,30.28,WNW,294,1.0,5.0,52,0.00,,---,0.00,VWS V14.01,2013-06-21 14:20:00,
2013-06-21 10:24:00,75.0,57.2,30.28,WNW,294,0.0,4.0,54,0.00,,---,0.00,VWS V14.01,2013-06-21 14:24:00,
2013-06-21 10:25:00,75.0,57.2,30.28,WNW,294,0.0,4.0,54,0.00,,---,0.00,VWS V14.01,2013-06-21 14:25:00,
2013-06-21 10:29:00,75.2,59.4,30.28,WNW,294,1.0,3.0,58,0.00,,---,0.00,VWS V14.01,2013-06-21 14:29:00,
2013-06-21 10:30:00,75.2,59.4,30.28,WNW,294,1.0,3.0,58,0.00,,---,0.00,VWS V14.01,2013-06-21 14:30:00,
2013-06-21 10:34:00,75.3,57.5,30.28,WNW,294,0.0,3.0,54,0.00,,---,0.00,VWS V14.01,2013-06-21 14:34:00,
2013-06-21 10:35:00,75.3,57.5,30.28,WNW,294,2.0,3.0,54,0.00,,---,0.00,VWS V14.01,2013-06-21 14:35:00,
2013-06-21 10:39:00,76.2,57.8,30.29,SE,136,0.0,4.0,53,0.00,,---,0.00,VWS V14.01,2013-06-21 14:39:00,
2013-06-21 10:40:00,76.2,59.4,30.29,SSW,192,3.0,4.0,56,0.00,,---,0.00,VWS V14.01,2013-06-21 14:40:00,
2013-06-21 10:44:00,76.9,60.0,30.28,SSE,147,4.0,6.0,56,0.00,,---,0.00,VWS V14.01,2013-06-21 14:44:00,
2013-06-21 10:45:00,76.9,60.0,30.28,South,176,3.0,6.0,56,0.00,,---,0.00,VWS V14.01,2013-06-21 14:45:00,
2013-06-21 10:49:00,76.9,58.5,30.28,South,186,0.0,4.0,53,0.00,,---,0.00,VWS V14.01,2013-06-21 14:49:00,
2013-06-21 10:50:00,76.8,58.4,30.28,South,186,1.0,4.0,53,0.00,,---,0.00,VWS V14.01,2013-06-21 14:50:00,
2013-06-21 10:54:00,76.1,58.3,30.28,WSW,248,2.0,2.0,54,0.00,,---,0.00,VWS V14.01,2013-06-21 14:54:00,
2013-06-21 10:55:00,76.1,58.3,30.28,WSW,248,1.0,2.0,54,0.00,,---,0.00,VWS V14.01,2013-06-21 14:55:00,
2013-06-21 10:59:00,76.6,57.7,30.28,West,275,0.0,4.0,52,0.00,,---,0.00,VWS V14.01,2013-06-21 14:59:00,
2013-06-21 11:00:00,76.6,57.7,30.28,West,275,0.0,4.0,52,0.00,,---,0.00,VWS V14.01,2013-06-21 15:00:00,
2013-06-21 11:04:00,77.0,58.0,30.29,SSW,213,1.0,4.0,52,0.00,,---,0.00,VWS V14.01,2013-06-21 15:04:00,
2013-06-21 11:05:00,77.0,58.0,30.29,SSW,213,1.0,4.0,52,0.00,,---,0.00,VWS V14.01,2013-06-21 15:05:00,
2013-06-21 11:09:00,77.5,56.9,30.28,SSE,157,3.0,8.0,49,0.00,,---,0.00,VWS V14.01,2013-06-21 15:09:00,
2013-06-21 11:10:00,77.5,56.9,30.28,SSE,157,3.0,8.0,49,0.00,,---,0.00,VWS V14.01,2013-06-21 15:10:00,
2013-06-21 11:14:00,77.6,58.6,30.29,SSE,163,0.0,1.0,52,0.00,,---,0.00,VWS V14.01,2013-06-21 15:14:00,
2013-06-21 11:15:00,77.6,58.6,30.29,SSE,163,1.0,4.0,52,0.00,,---,0.00,VWS V14.01,2013-06-21 15:15:00,
2013-06-21 11:19:00,77.1,58.1,30.29,WSW,248,4.0,4.0,52,0.00,,---,0.00,VWS V14.01,2013-06-21 15:19:00,
2013-06-21 11:20:00,77.1,58.1,30.29,WSW,245,2.0,4.0,52,0.00,,---,0.00,VWS V14.01,2013-06-21 15:20:00,
2013-06-21 11:24:00,76.9,57.4,30.29,WSW,244,0.0,0.0,51,0.00,,---,0.00,VWS V14.01,2013-06-21 15:24:00,
2013-06-21 11:25:00,76.9,57.4,30.29,WSW,244,0.0,4.0,51,0.00,,---,0.00,VWS V14.01,2013-06-21 15:25:00,
2013-06-21 11:29:00,76.9,55.7,30.29,WSW,242,3.0,3.0,48,0.00,,---,0.00,VWS V14.01,2013-06-21 15:29:00,
2013-06-21 11:30:00,76.9,55.7,30.29,WSW,241,1.0,2.0,48,0.00,,---,0.00,VWS V14.01,2013-06-21 15:30:00,
2013-06-21 11:34:00,77.1,57.0,30.29,West,260,3.0,4.0,50,0.00,,---,0.00,VWS V14.01,2013-06-21 15:34:00,
2013-06-21 11:35:00,77.1,57.0,30.29,West,260,4.0,4.0,50,0.00,,---,0.00,VWS V14.01,2013-06-21 15:35:00,
2013-06-21 11:39:00,77.2,57.1,30.29,WSW,257,1.0,4.0,50,0.00,,---,0.00,VWS V14.01,2013-06-21 15:39:00,
2013-06-21 11:40:00,77.2,57.1,30.29,WSW,257,1.0,4.0,50,0.00,,---,0.00,VWS V14.01,2013-06-21 15:40:00,
2013-06-21 11:44:00,77.6,58.1,30.29,SW,227,0.0,0.0,51,0.00,,---,0.00,VWS V14.01,2013-06-21 15:44:00,
2013-06-21 11:45:00,77.6,58.1,30.29,SW,227,0.0,5.0,51,0.00,,---,0.00,VWS V14.01,2013-06-21 15:45:00,
2013-06-21 11:49:00,78.2,58.6,30.29,SSW,207,0.0,0.0,51,0.00,,---,0.00,VWS V14.01,2013-06-21 15:49:00,
2013-06-21 11:50:00,78.2,58.1,30.29,SSW,207,0.0,5.0,50,0.00,,---,0.00,VWS V14.01,2013-06-21 15:50:00,
2013-06-21 11:54:00,77.3,57.8,30.29,SSW,207,1.0,2.0,51,0.00,,---,0.00,VWS V14.01,2013-06-21 15:54:00,
2013-06-21 11:55:00,77.3,57.8,30.29,SSW,207,1.0,2.0,51,0.00,,---,0.00,VWS V14.01,2013-06-21 15:55:00,
2013-06-21 11:59:00,78.4,59.9,30.29,WNW,290,1.0,5.0,53,0.00,,---,0.00,VWS V14.01,2013-06-21 15:59:00,
2013-06-21 12:00:00,78.4,59.9,30.29,WNW,290,1.0,5.0,53,0.00,,---,0.00,VWS V14.01,2013-06-21 16:00:00,
2013-06-21 12:04:00,78.6,57.9,30.29,NW,305,2.0,9.0,49,0.00,,---,0.00,VWS V14.01,2013-06-21 16:04:00,
2013-06-21 12:05:00,78.6,57.9,30.29,NW,305,2.0,9.0,49,0.00,,---,0.00,VWS V14.01,2013-06-21 16:05:00,
2013-06-21 12:09:00,78.7,59.1,30.29,NW,320,5.0,5.0,51,0.00,,---,0.00,VWS V14.01,2013-06-21 16:09:00,
2013-06-21 12:10:00,78.7,59.1,30.29,NW,319,4.0,5.0,51,0.00,,---,0.00,VWS V14.01,2013-06-21 16:10:00,
2013-06-21 12:14:00,78.7,61.7,30.28,ESE,122,1.0,6.0,56,0.00,,---,0.00,VWS V14.01,2013-06-21 16:14:00,
2013-06-21 12:15:00,78.7,61.7,30.28,ESE,122,1.0,6.0,56,0.00,,---,0.00,VWS V14.01,2013-06-21 16:15:00,
2013-06-21 12:19:00,79.2,63.2,30.29,SW,236,1.0,5.0,58,0.00,,---,0.00,VWS V14.01,2013-06-21 16:19:00,
2013-06-21 12:20:00,79.2,63.2,30.29,SW,236,2.0,5.0,58,0.00,,---,0.00,VWS V14.01,2013-06-21 16:20:00,
2013-06-21 12:24:00,79.3,62.3,30.29,ESE,105,5.0,9.0,56,0.00,,---,0.00,VWS V14.01,2013-06-21 16:24:00,
2013-06-21 12:25:00,79.3,62.3,30.29,SE,127,4.0,9.0,56,0.00,,---,0.00,VWS V14.01,2013-06-21 16:25:00,
2013-06-21 12:29:00,79.1,62.6,30.29,ESE,117,7.0,10.0,57,0.00,,---,0.00,VWS V14.01,2013-06-21 16:29:00,
2013-06-21 12:30:00,79.1,62.6,30.29,ESE,113,6.0,10.0,57,0.00,,---,0.00,VWS V14.01,2013-06-21 16:30:00,
2013-06-21 12:34:00,78.4,61.9,30.28,SE,138,9.0,11.0,57,0.00,,---,0.00,VWS V14.01,2013-06-21 16:34:00,
2013-06-21 12:35:00,78.4,61.9,30.28,SSE,154,7.0,11.0,57,0.00,,---,0.00,VWS V14.01,2013-06-21 16:35:00,
2013-06-21 12:39:00,78.4,61.9,30.29,SE,127,10.0,11.0,57,0.00,,---,0.00,VWS V14.01,2013-06-21 16:39:00,
2013-06-21 12:40:00,78.4,61.9,30.29,ESE,117,8.0,11.0,57,0.00,,---,0.00,VWS V14.01,2013-06-21 16:40:00,
2013-06-21 12:44:00,78.7,62.7,30.29,East,96,5.0,10.0,58,0.00,,---,0.00,VWS V14.01,2013-06-21 16:44:00,
2013-06-21 12:45:00,78.7,62.7,30.29,East,96,5.0,10.0,58,0.00,,---,0.00,VWS V14.01,2013-06-21 16:45:00,
2013-06-21 12:49:00,78.5,63.5,30.29,ESE,120,8.0,11.0,60,0.00,,---,0.00,VWS V14.01,2013-06-21 16:49:00,
2013-06-21 12:50:00,78.5,63.5,30.29,ESE,120,8.0,11.0,60,0.00,,---,0.00,VWS V14.01,2013-06-21 16:50:00,
2013-06-21 12:54:00,78.4,63.4,30.29,ESE,119,6.0,6.0,60,0.00,,---,0.00,VWS V14.01,2013-06-21 16:54:00,
2013-06-21 12:55:00,78.4,63.4,30.29,ESE,119,6.0,10.0,60,0.00,,---,0.00,VWS V14.01,2013-06-21 16:55:00,
2013-06-21 12:59:00,78.2,62.2,30.29,ENE,66,4.0,12.0,58,0.00,,---,0.00,VWS V14.01,2013-06-21 16:59:00,
2013-06-21 13:00:00,78.2,62.2,30.29,ENE,66,3.0,12.0,58,0.00,,---,0.00,VWS V14.01,2013-06-21 17:00:00,
2013-06-21 13:04:00,78.2,62.2,30.29,SE,128,5.0,5.0,58,0.00,,---,0.00,VWS V14.01,2013-06-21 17:04:00,
2013-06-21 13:05:00,78.2,62.2,30.29,SE,130,5.0,9.0,58,0.00,,---,0.00,VWS V14.01,2013-06-21 17:05:00,
2013-06-21 13:09:00,78.7,63.2,30.29,ESE,119,1.0,8.0,59,0.00,,---,0.00,VWS V14.01,2013-06-21 17:09:00,
2013-06-21 13:10:00,78.7,63.2,30.29,ESE,119,1.0,8.0,59,0.00,,---,0.00,VWS V14.01,2013-06-21 17:10:00,
2013-06-21 13:14:00,79.3,62.8,30.29,SSE,154,5.0,10.0,57,0.00,,---,0.00,VWS V14.01,2013-06-21 17:14:00,
2013-06-21 13:15:00,79.3,62.8,30.29,SSE,154,5.0,10.0,57,0.00,,---,0.00,VWS V14.01,2013-06-21 17:15:00,
2013-06-21 13:19:00,78.9,61.4,30.29,SE,131,7.0,9.0,55,0.00,,---,0.00,VWS V14.01,2013-06-21 17:19:00,
2013-06-21 13:20:00,78.9,61.4,30.29,SE,131,7.0,9.0,55,0.00,,---,0.00,VWS V14.01,2013-06-21 17:20:00,
2013-06-21 13:24:00,79.0,62.5,30.29,SSE,147,9.0,11.0,57,0.00,,---,0.00,VWS V14.01,2013-06-21 17:24:00,
2013-06-21 13:25:00,79.0,62.5,30.29,SSE,147,9.0,11.0,57,0.00,,---,0.00,VWS V14.01,2013-06-21 17:25:00,
2013-06-21 13:29:00,79.1,61.0,30.29,ESE,113,9.0,10.0,54,0.00,,---,0.00,VWS V14.01,2013-06-21 17:29:00,
2013-06-21 13:30:00,79.1,61.0,30.29,SE,143,9.0,10.0,54,0.00,,---,0.00,VWS V14.01,2013-06-21 17:30:00,
2013-06-21 13:34:00,79.0,62.0,30.28,SE,130,5.0,8.0,56,0.00,,---,0.00,VWS V14.01,2013-06-21 17:34:00,
2013-06-21 13:35:00,79.0,61.0,30.28,SSE,156,5.0,11.0,54,0.00,,---,0.00,VWS V14.01,2013-06-21 17:35:00,
2013-06-21 13:40:00,79.1,60.0,30.27,SE,130,7.0,9.0,52,0.00,,---,0.00,VWS V14.01,2013-06-21 17:40:00,
2013-06-21 13:45:00,79.3,61.2,30.27,East,101,3.0,5.0,54,0.00,,---,0.00,VWS V14.01,2013-06-21 17:45:00,
2013-06-21 13:46:00,79.3,60.7,30.27,SE,146,7.0,8.0,53,0.00,,---,0.00,VWS V14.01,2013-06-21 17:46:00,
2013-06-21 13:50:00,79.5,59.2,30.27,SSE,149,8.0,11.0,50,0.00,,---,0.00,VWS V14.01,2013-06-21 17:50:00,
2013-06-21 13:51:00,79.5,59.8,30.27,South,175,5.0,10.0,51,0.00,,---,0.00,VWS V14.01,2013-06-21 17:51:00,
2013-06-21 13:55:00,79.6,58.2,30.27,SE,126,6.0,12.0,48,0.00,,---,0.00,VWS V14.01,2013-06-21 17:55:00,
2013-06-21 13:56:00,79.3,59.1,30.27,SE,124,8.0,12.0,50,0.00,,---,0.00,VWS V14.01,2013-06-21 17:56:00,
2013-06-21 14:00:00,78.9,58.7,30.27,SE,142,10.0,13.0,50,0.00,,---,0.00,VWS V14.01,2013-06-21 18:00:00,
2013-06-21 14:01:00,78.9,59.8,30.27,South,174,5.0,10.0,52,0.00,,---,0.00,VWS V14.01,2013-06-21 18:01:00,
2013-06-21 14:05:00,79.0,59.9,30.27,SE,126,7.0,11.0,52,0.00,,---,0.00,VWS V14.01,2013-06-21 18:05:00,
2013-06-21 14:06:00,79.2,59.0,30.27,ESE,123,9.0,12.0,50,0.00,,---,0.00,VWS V14.01,2013-06-21 18:06:00,
2013-06-21 14:10:00,79.1,59.4,30.27,SE,143,5.0,12.0,51,0.00,,---,0.00,VWS V14.01,2013-06-21 18:10:00,
2013-06-21 14:11:00,79.3,59.6,30.27,SE,145,3.0,14.0,51,0.00,,---,0.00,VWS V14.01,2013-06-21 18:11:00,
2013-06-21 14:15:00,79.2,58.4,30.27,ESE,109,6.0,14.0,49,0.00,,---,0.00,VWS V14.01,2013-06-21 18:15:00,
2013-06-21 14:16:00,79.0,58.2,30.27,SE,132,7.0,11.0,49,0.00,,---,0.00,VWS V14.01,2013-06-21 18:16:00,
2013-06-21 14:20:00,78.7,59.1,30.27,SE,136,5.0,11.0,51,0.00,,---,0.00,VWS V14.01,2013-06-21 18:20:00,
2013-06-21 14:21:00,78.8,58.6,30.27,SE,124,7.0,7.0,50,0.00,,---,0.00,VWS V14.01,2013-06-21 18:21:00,
2013-06-21 14:23:00,79.0,58.8,30.27,SE,132,8.0,11.0,50,0.00,,---,0.00,VWS V14.01,2013-06-21 18:23:00,
2013-06-21 14:25:00,79.0,59.9,30.27,SSE,157,4.0,11.0,52,0.00,,---,0.00,VWS V14.01,2013-06-21 18:25:00,
2013-06-21 14:28:00,78.9,59.2,30.26,SSE,149,4.0,13.0,51,0.00,,---,0.00,VWS V14.01,2013-06-21 18:28:00,
2013-06-21 14:30:00,79.0,59.3,30.26,SE,128,3.0,13.0,51,0.00,,---,0.00,VWS V14.01,2013-06-21 18:30:00,
2013-06-21 14:33:00,78.8,59.2,30.26,SE,144,5.0,11.0,51,0.00,,---,0.00,VWS V14.01,2013-06-21 18:33:00,
2013-06-21 14:35:00,78.9,60.3,30.26,South,179,6.0,11.0,53,0.00,,---,0.00,VWS V14.01,2013-06-21 18:35:00,
2013-06-21 14:38:00,79.1,59.4,30.26,SSE,153,6.0,11.0,51,0.00,,---,0.00,VWS V14.01,2013-06-21 18:38:00,
2013-06-21 14:40:00,79.0,60.4,30.26,SSE,165,2.0,11.0,53,0.00,,---,0.00,VWS V14.01,2013-06-21 18:40:00,
2013-06-21 14:43:00,79.3,59.6,30.26,SE,137,7.0,10.0,51,0.00,,---,0.00,VWS V14.01,2013-06-21 18:43:00,
2013-06-21 14:45:00,79.6,59.9,30.26,SSE,153,10.0,10.0,51,0.00,,---,0.00,VWS V14.01,2013-06-21 18:45:00,
2013-06-21 14:50:00,79.2,59.5,30.26,SE,139,3.0,7.0,51,0.00,,---,0.00,VWS V14.01,2013-06-21 18:50:00,
2013-06-21 14:55:00,79.6,59.3,30.26,ESE,115,8.0,12.0,50,0.00,,---,0.00,VWS V14.01,2013-06-21 18:55:00,
2013-06-21 15:00:00,79.0,58.2,30.26,SE,144,4.0,10.0,49,0.00,,---,0.00,VWS V14.01,2013-06-21 19:00:00,
2013-06-21 15:05:00,79.2,60.6,30.26,SE,130,2.0,9.0,53,0.00,,---,0.00,VWS V14.01,2013-06-21 19:05:00,
2013-06-21 15:10:00,79.8,60.6,30.26,SE,138,3.0,9.0,52,0.00,,---,0.00,VWS V14.01,2013-06-21 19:10:00,
2013-06-21 15:11:00,79.8,59.5,30.26,South,182,0.0,5.0,50,0.00,,---,0.00,VWS V14.01,2013-06-21 19:11:00,
2013-06-21 15:15:00,79.3,60.7,30.27,SSE,148,7.0,10.0,53,0.00,,---,0.00,VWS V14.01,2013-06-21 19:15:00,
2013-06-21 15:16:00,79.2,60.1,30.27,SSE,159,9.0,10.0,52,0.00,,---,0.00,VWS V14.01,2013-06-21 19:16:00,
2013-06-21 15:20:00,78.7,59.1,30.27,SSE,155,7.0,7.0,51,0.00,,---,0.00,VWS V14.01,2013-06-21 19:20:00,
2013-06-21 15:25:00,78.9,60.3,30.26,South,182,5.0,5.0,53,0.00,,---,0.00,VWS V14.01,2013-06-21 19:25:00,
2013-06-21 15:30:00,79.0,59.3,30.27,SE,136,7.0,10.0,51,0.00,,---,0.00,VWS V14.01,2013-06-21 19:30:00,
2013-06-21 15:35:00,78.9,60.3,30.26,SE,131,4.0,4.0,53,0.00,,---,0.00,VWS V14.01,2013-06-21 19:35:00,
2013-06-21 15:40:00,78.8,60.2,30.26,SSE,155,6.0,8.0,53,0.00,,---,0.00,VWS V14.01,2013-06-21 19:40:00,
2013-06-21 15:42:00,78.8,60.2,30.26,South,187,0.0,9.0,53,0.00,,---,0.00,VWS V14.01,2013-06-21 19:42:00,
2013-06-21 15:43:00,78.8,60.2,30.26,South,172,4.0,9.0,53,0.00,,---,0.00,VWS V14.01,2013-06-21 19:43:00,
2013-06-21 15:45:00,78.9,60.3,30.26,South,173,1.0,9.0,53,0.00,,---,0.00,VWS V14.01,2013-06-21 19:45:00,
2013-06-21 15:48:00,79.4,61.8,30.26,SSE,149,5.0,10.0,55,0.00,,---,0.00,VWS V14.01,2013-06-21 19:48:00,
2013-06-21 15:50:00,79.6,61.0,30.26,SSE,154,6.0,12.0,53,0.00,,---,0.00,VWS V14.01,2013-06-21 19:50:00,
2013-06-21 15:52:00,79.6,60.4,30.25,SSW,194,3.0,10.0,52,0.00,,---,0.00,VWS V14.01,2013-06-21 19:52:00,
2013-06-21 15:55:00,79.6,60.4,30.25,SSE,166,4.0,10.0,52,0.00,,---,0.00,VWS V14.01,2013-06-21 19:55:00,
2013-06-21 15:57:00,79.7,62.1,30.25,SE,134,4.0,4.0,55,0.00,,---,0.00,VWS V14.01,2013-06-21 19:57:00,
2013-06-21 16:00:00,79.9,61.3,30.25,SSW,196,1.0,6.0,53,0.00,,---,0.00,VWS V14.01,2013-06-21 20:00:00,
2013-06-21 16:02:00,80.0,61.3,30.25,SSE,155,2.0,11.0,53,0.00,,---,0.00,VWS V14.01,2013-06-21 20:02:00,
2013-06-21 16:04:00,79.9,62.3,30.25,SSE,161,9.0,11.0,55,0.00,,---,0.00,VWS V14.01,2013-06-21 20:04:00,
2013-06-21 16:05:00,79.9,60.7,30.25,South,181,4.0,11.0,52,0.00,,---,0.00,VWS V14.01,2013-06-21 20:05:00,
2013-06-21 16:08:00,79.7,59.4,30.25,South,178,4.0,9.0,50,0.00,,---,0.00,VWS V14.01,2013-06-21 20:08:00,
2013-06-21 16:10:00,79.4,59.2,30.25,SSE,147,8.0,10.0,50,0.00,,---,0.00,VWS V14.01,2013-06-21 20:10:00,
2013-06-21 16:11:00,79.2,59.5,30.25,South,171,2.0,8.0,51,0.00,,---,0.00,VWS V14.01,2013-06-21 20:11:00,
2013-06-21 16:13:00,79.1,59.4,30.25,South,188,3.0,11.0,51,0.00,,---,0.00,VWS V14.01,2013-06-21 20:13:00,
2013-06-21 16:15:00,79.1,60.0,30.25,South,169,4.0,11.0,52,0.00,,---,0.00,VWS V14.01,2013-06-21 20:15:00,
2013-06-21 16:18:00,79.3,60.2,30.25,South,186,8.0,12.0,52,0.00,,---,0.00,VWS V14.01,2013-06-21 20:18:00,
2013-06-21 16:20:00,79.3,60.2,30.25,ESE,110,8.0,12.0,52,0.00,,---,0.00,VWS V14.01,2013-06-21 20:20:00,
2013-06-21 16:23:00,78.8,60.2,30.25,SSE,158,5.0,14.0,53,0.00,,---,0.00,VWS V14.01,2013-06-21 20:23:00,
2013-06-21 16:25:00,78.7,59.6,30.25,ESE,117,5.0,14.0,52,0.00,,---,0.00,VWS V14.01,2013-06-21 20:25:00,
2013-06-21 16:28:00,78.6,60.6,30.25,ESE,112,10.0,12.0,54,0.00,,---,0.00,VWS V14.01,2013-06-21 20:28:00,
2013-06-21 16:30:00,78.5,60.5,30.25,SSE,151,2.0,13.0,54,0.00,,---,0.00,VWS V14.01,2013-06-21 20:30:00,
2013-06-21 16:33:00,78.5,60.5,30.25,SE,124,6.0,11.0,54,0.00,,---,0.00,VWS V14.01,2013-06-21 20:33:00,
2013-06-21 16:35:00,78.5,60.5,30.25,SE,127,10.0,13.0,54,0.00,,---,0.00,VWS V14.01,2013-06-21 20:35:00,
2013-06-21 16:38:00,78.7,60.2,30.25,SSE,167,7.0,11.0,53,0.00,,---,0.00,VWS V14.01,2013-06-21 20:38:00,
2013-06-21 16:40:00,78.7,59.6,30.25,SSE,166,4.0,11.0,52,0.00,,---,0.00,VWS V14.01,2013-06-21 20:40:00,
2013-06-21 16:44:00,78.8,60.8,30.25,SSE,167,6.0,10.0,54,0.00,,---,0.00,VWS V14.01,2013-06-21 20:44:00,
2013-06-21 16:45:00,78.9,60.3,30.25,SE,142,4.0,10.0,53,0.00,,---,0.00,VWS V14.01,2013-06-21 20:45:00,
2013-06-21 16:49:00,79.0,59.3,30.24,SSW,211,1.0,11.0,51,0.00,,---,0.00,VWS V14.01,2013-06-21 20:49:00,
2013-06-21 16:50:00,78.9,59.3,30.24,SE,128,4.0,11.0,51,0.00,,---,0.00,VWS V14.01,2013-06-21 20:50:00,
2013-06-21 16:54:00,78.7,58.5,30.24,SSE,156,0.0,12.0,50,0.00,,---,0.00,VWS V14.01,2013-06-21 20:54:00,
2013-06-21 16:55:00,78.7,59.1,30.24,ESE,119,5.0,12.0,51,0.00,,---,0.00,VWS V14.01,2013-06-21 20:55:00,
2013-06-21 16:59:00,78.8,59.2,30.24,SE,140,8.0,9.0,51,0.00,,---,0.00,VWS V14.01,2013-06-21 20:59:00,
2013-06-21 17:00:00,78.7,59.1,30.24,South,191,2.0,9.0,51,0.00,,---,0.00,VWS V14.01,2013-06-21 21:00:00,
2013-06-21 17:04:00,78.9,59.2,30.24,SE,126,2.0,7.0,51,0.00,,---,0.00,VWS V14.01,2013-06-21 21:04:00,
2013-06-21 17:05:00,78.9,59.3,30.24,SE,145,2.0,7.0,51,0.00,,---,0.00,VWS V14.01,2013-06-21 21:05:00,
2013-06-21 17:09:00,79.2,60.1,30.24,South,191,3.0,7.0,52,0.00,,---,0.00,VWS V14.01,2013-06-21 21:09:00,
2013-06-21 17:10:00,79.2,60.1,30.24,South,185,4.0,7.0,52,0.00,,---,0.00,VWS V14.01,2013-06-21 21:10:00,
2013-06-21 17:14:00,78.5,60.5,30.24,SSE,155,4.0,13.0,54,0.00,,---,0.00,VWS V14.01,2013-06-21 21:14:00,
2013-06-21 17:15:00,78.5,59.4,30.24,SSW,194,8.0,13.0,52,0.00,,---,0.00,VWS V14.01,2013-06-21 21:15:00,
2013-06-21 17:19:00,78.0,59.0,30.24,SSE,168,7.0,10.0,52,0.00,,---,0.00,VWS V14.01,2013-06-21 21:19:00,
2013-06-21 17:20:00,78.0,59.0,30.24,SSW,213,3.0,10.0,52,0.00,,---,0.00,VWS V14.01,2013-06-21 21:20:00,
2013-06-21 17:24:00,78.4,59.3,30.24,SW,214,5.0,7.0,52,0.00,,---,0.00,VWS V14.01,2013-06-21 21:24:00,
2013-06-21 17:25:00,78.4,58.2,30.24,SW,219,1.0,7.0,50,0.00,,---,0.00,VWS V14.01,2013-06-21 21:25:00,
2013-06-21 17:29:00,78.3,58.7,30.24,South,170,0.0,5.0,51,0.00,,---,0.00,VWS V14.01,2013-06-21 21:29:00,
2013-06-21 17:30:00,78.2,58.1,30.24,South,170,0.0,5.0,50,0.00,,---,0.00,VWS V14.01,2013-06-21 21:30:00,
2013-06-21 17:34:00,77.9,58.9,30.24,SE,132,3.0,7.0,52,0.00,,---,0.00,VWS V14.01,2013-06-21 21:34:00,
2013-06-21 17:35:00,77.9,58.9,30.24,SSE,149,0.0,7.0,52,0.00,,---,0.00,VWS V14.01,2013-06-21 21:35:00,
2013-06-21 17:39:00,77.6,56.4,30.24,South,169,10.0,10.0,48,0.00,,---,0.00,VWS V14.01,2013-06-21 21:39:00,
2013-06-21 17:40:00,77.6,57.0,30.24,SE,145,3.0,10.0,49,0.00,,---,0.00,VWS V14.01,2013-06-21 21:40:00,
2013-06-21 17:44:00,77.2,57.1,30.24,South,177,2.0,11.0,50,0.00,,---,0.00,VWS V14.01,2013-06-21 21:44:00,
2013-06-21 17:45:00,77.2,57.7,30.24,South,187,7.0,11.0,51,0.00,,---,0.00,VWS V14.01,2013-06-21 21:45:00,
2013-06-21 17:49:00,77.3,57.2,30.24,SE,139,3.0,11.0,50,0.00,,---,0.00,VWS V14.01,2013-06-21 21:49:00,
2013-06-21 17:50:00,77.3,57.2,30.24,SE,144,3.0,11.0,50,0.00,,---,0.00,VWS V14.01,2013-06-21 21:50:00,
2013-06-21 17:54:00,77.1,57.6,30.24,SSE,150,6.0,13.0,51,0.00,,---,0.00,VWS V14.01,2013-06-21 21:54:00,
2013-06-21 17:55:00,77.1,57.0,30.24,SSE,148,7.0,13.0,50,0.00,,---,0.00,VWS V14.01,2013-06-21 21:55:00,
2013-06-21 17:59:00,76.9,57.4,30.23,SSW,210,1.0,10.0,51,0.00,,---,0.00,VWS V14.01,2013-06-21 21:59:00,
2013-06-21 18:00:00,76.9,58.0,30.23,SE,146,7.0,10.0,52,0.00,,---,0.00,VWS V14.01,2013-06-21 22:00:00,
2013-06-21 18:04:00,76.8,57.9,30.23,SSE,153,5.0,10.0,52,0.00,,---,0.00,VWS V14.01,2013-06-21 22:04:00,
2013-06-21 18:05:00,76.8,57.9,30.23,SSE,163,3.0,10.0,52,0.00,,---,0.00,VWS V14.01,2013-06-21 22:05:00,
2013-06-21 18:09:00,76.8,57.3,30.23,South,176,3.0,10.0,51,0.00,,---,0.00,VWS V14.01,2013-06-21 22:09:00,
2013-06-21 18:10:00,76.8,57.3,30.23,South,177,2.0,10.0,51,0.00,,---,0.00,VWS V14.01,2013-06-21 22:10:00,
2013-06-21 18:14:00,76.5,58.1,30.23,SSE,161,4.0,4.0,53,0.00,,---,0.00,VWS V14.01,2013-06-21 22:14:00,
2013-06-21 18:15:00,76.5,58.1,30.23,SSE,161,3.0,10.0,53,0.00,,---,0.00,VWS V14.01,2013-06-21 22:15:00,
2013-06-21 18:19:00,76.2,57.3,30.23,SSE,147,4.0,4.0,52,0.00,,---,0.00,VWS V14.01,2013-06-21 22:19:00,
2013-06-21 18:20:00,76.2,57.3,30.23,SSE,147,4.0,7.0,52,0.00,,---,0.00,VWS V14.01,2013-06-21 22:20:00,
2013-06-21 18:24:00,76.1,58.8,30.23,SSE,160,0.0,8.0,55,0.00,,---,0.00,VWS V14.01,2013-06-21 22:24:00,
2013-06-21 18:25:00,76.1,58.8,30.23,SSE,160,0.0,8.0,55,0.00,,---,0.00,VWS V14.01,2013-06-21 22:25:00,
2013-06-21 18:29:00,76.2,59.4,30.24,South,178,0.0,6.0,56,0.00,,---,0.00,VWS V14.01,2013-06-21 22:29:00,
2013-06-21 18:30:00,76.2,59.4,30.24,South,178,0.0,6.0,56,0.00,,---,0.00,VWS V14.01,2013-06-21 22:30:00,
2013-06-21 18:34:00,75.9,59.1,30.24,SSW,213,1.0,10.0,56,0.00,,---,0.00,VWS V14.01,2013-06-21 22:34:00,
2013-06-21 18:35:00,75.9,59.1,30.24,SSW,213,1.0,10.0,56,0.00,,---,0.00,VWS V14.01,2013-06-21 22:35:00,
2013-06-21 18:39:00,75.7,59.4,30.24,SSW,202,2.0,7.0,57,0.00,,---,0.00,VWS V14.01,2013-06-21 22:39:00,
2013-06-21 18:40:00,75.7,58.4,30.24,SSW,202,1.0,7.0,55,0.00,,---,0.00,VWS V14.01,2013-06-21 22:40:00,
2013-06-21 18:44:00,75.5,59.2,30.24,SSE,167,2.0,5.0,57,0.00,,---,0.00,VWS V14.01,2013-06-21 22:44:00,
2013-06-21 18:45:00,75.5,59.2,30.24,SSE,168,1.0,5.0,57,0.00,,---,0.00,VWS V14.01,2013-06-21 22:45:00,
2013-06-21 18:49:00,75.5,58.7,30.24,SSE,166,1.0,8.0,56,0.00,,---,0.00,VWS V14.01,2013-06-21 22:49:00,
2013-06-21 18:50:00,75.5,58.7,30.24,SSE,166,1.0,8.0,56,0.00,,---,0.00,VWS V14.01,2013-06-21 22:50:00,
2013-06-21 18:54:00,75.5,59.2,30.24,SSE,159,4.0,5.0,57,0.00,,---,0.00,VWS V14.01,2013-06-21 22:54:00,
2013-06-21 18:55:00,75.5,59.2,30.24,South,186,4.0,5.0,57,0.00,,---,0.00,VWS V14.01,2013-06-21 22:55:00,
2013-06-21 18:59:00,75.2,58.4,30.24,SSW,205,1.0,8.0,56,0.00,,---,0.00,VWS V14.01,2013-06-21 22:59:00,
2013-06-21 19:00:00,75.2,58.4,30.24,SSW,205,0.0,8.0,56,0.00,,---,0.00,VWS V14.01,2013-06-21 23:00:00,
2013-06-21 19:04:00,75.1,58.8,30.24,SW,220,4.0,6.0,57,0.00,,---,0.00,VWS V14.01,2013-06-21 23:04:00,
2013-06-21 19:05:00,75.1,58.8,30.24,South,187,5.0,6.0,57,0.00,,---,0.00,VWS V14.01,2013-06-21 23:05:00,
2013-06-21 19:09:00,74.9,59.6,30.24,SSW,194,0.0,6.0,59,0.00,,---,0.00,VWS V14.01,2013-06-21 23:09:00,
2013-06-21 19:10:00,74.9,59.6,30.24,SSW,194,0.0,6.0,59,0.00,,---,0.00,VWS V14.01,2013-06-21 23:10:00,
2013-06-21 19:14:00,75.0,58.8,30.24,South,174,1.0,5.0,57,0.00,,---,0.00,VWS V14.01,2013-06-21 23:14:00,
2013-06-21 19:15:00,75.0,58.8,30.24,South,174,0.0,5.0,57,0.00,,---,0.00,VWS V14.01,2013-06-21 23:15:00,
2013-06-21 19:19:00,74.8,59.0,30.24,South,191,1.0,5.0,58,0.00,,---,0.00,VWS V14.01,2013-06-21 23:19:00,
2013-06-21 19:20:00,74.8,59.0,30.24,South,179,4.0,5.0,58,0.00,,---,0.00,VWS V14.01,2013-06-21 23:20:00,
2013-06-21 19:24:00,74.5,58.3,30.24,SE,139,3.0,10.0,57,0.00,,---,0.00,VWS V14.01,2013-06-21 23:24:00,
2013-06-21 19:25:00,74.5,58.3,30.24,SE,140,1.0,10.0,57,0.00,,---,0.00,VWS V14.01,2013-06-21 23:25:00,
2013-06-21 19:29:00,74.2,58.0,30.24,SSE,157,3.0,5.0,57,0.00,,---,0.00,VWS V14.01,2013-06-21 23:29:00,
2013-06-21 19:30:00,74.2,58.0,30.24,SSE,157,2.0,5.0,57,0.00,,---,0.00,VWS V14.01,2013-06-21 23:30:00,
2013-06-21 19:34:00,73.9,57.2,30.24,SSW,212,0.0,11.0,56,0.00,,---,0.00,VWS V14.01,2013-06-21 23:34:00,
2013-06-21 19:35:00,73.9,57.2,30.24,SSW,211,1.0,11.0,56,0.00,,---,0.00,VWS V14.01,2013-06-21 23:35:00,
2013-06-21 19:39:00,73.6,57.9,30.24,SSW,207,0.0,3.0,58,0.00,,---,0.00,VWS V14.01,2013-06-21 23:39:00,
2013-06-21 19:40:00,73.6,57.9,30.24,SSW,207,0.0,3.0,58,0.00,,---,0.00,VWS V14.01,2013-06-21 23:40:00,
2013-06-21 19:44:00,73.3,57.7,30.24,SSE,155,2.0,4.0,58,0.00,,---,0.00,VWS V14.01,2013-06-21 23:44:00,
2013-06-21 19:45:00,73.3,57.7,30.24,SSE,155,1.0,4.0,58,0.00,,---,0.00,VWS V14.01,2013-06-21 23:45:00,
2013-06-21 19:49:00,72.9,57.3,30.24,South,190,1.0,8.0,58,0.00,,---,0.00,VWS V14.01,2013-06-21 23:49:00,
2013-06-21 19:50:00,72.9,57.3,30.24,SW,219,2.0,8.0,58,0.00,,---,0.00,VWS V14.01,2013-06-21 23:50:00,
2013-06-21 19:54:00,72.6,57.5,30.24,SSE,147,0.0,5.0,59,0.00,,---,0.00,VWS V14.01,2013-06-21 23:54:00,
2013-06-21 19:55:00,72.6,57.5,30.24,SSW,202,1.0,5.0,59,0.00,,---,0.00,VWS V14.01,2013-06-21 23:55:00,
2013-06-21 19:59:00,72.2,57.1,30.23,South,171,2.0,3.0,59,0.00,,---,0.00,VWS V14.01,2013-06-21 23:59:00,
2013-06-21 20:00:00,72.2,57.1,30.23,South,171,0.0,3.0,59,0.00,,---,0.00,VWS V14.01,2013-06-22 00:00:00,
2013-06-21 20:04:00,71.9,56.8,30.23,South,179,0.0,5.0,59,0.00,,---,0.00,VWS V14.01,2013-06-22 00:04:00,
2013-06-21 20:05:00,71.9,56.8,30.23,South,179,0.0,5.0,59,0.00,,---,0.00,VWS V14.01,2013-06-22 00:05:00,
2013-06-21 20:09:00,71.7,56.6,30.23,SSE,159,2.0,3.0,59,0.00,,---,0.00,VWS V14.01,2013-06-22 00:09:00,
2013-06-21 20:10:00,71.7,56.6,30.23,South,190,5.0,5.0,59,0.00,,---,0.00,VWS V14.01,2013-06-22 00:10:00,
2013-06-21 20:14:00,71.4,56.3,30.23,SSW,210,0.0,5.0,59,0.00,,---,0.00,VWS V14.01,2013-06-22 00:14:00,
2013-06-21 20:15:00,71.4,56.3,30.23,SSW,210,1.0,5.0,59,0.00,,---,0.00,VWS V14.01,2013-06-22 00:15:00,
2013-06-21 20:19:00,71.2,56.2,30.23,South,178,2.0,4.0,59,0.00,,---,0.00,VWS V14.01,2013-06-22 00:19:00,
2013-06-21 20:20:00,71.2,56.2,30.23,South,178,0.0,4.0,59,0.00,,---,0.00,VWS V14.01,2013-06-22 00:20:00,
2013-06-21 20:24:00,70.9,55.4,30.23,South,188,1.0,5.0,58,0.00,,---,0.00,VWS V14.01,2013-06-22 00:24:00,
2013-06-21 20:25:00,70.9,55.4,30.23,South,188,1.0,5.0,58,0.00,,---,0.00,VWS V14.01,2013-06-22 00:25:00,
2013-06-21 20:29:00,70.6,55.1,30.23,South,183,0.0,2.0,58,0.00,,---,0.00,VWS V14.01,2013-06-22 00:29:00,
2013-06-21 20:30:00,70.5,55.0,30.23,South,183,1.0,2.0,58,0.00,,---,0.00,VWS V14.01,2013-06-22 00:30:00,
2013-06-21 20:34:00,70.2,54.8,30.23,South,183,0.0,2.0,58,0.00,,---,0.00,VWS V14.01,2013-06-22 00:34:00,
2013-06-21 20:35:00,70.1,54.7,30.23,South,183,0.0,2.0,58,0.00,,---,0.00,VWS V14.01,2013-06-22 00:35:00,
2013-06-21 20:39:00,69.9,54.5,30.23,South,183,0.0,1.0,58,0.00,,---,0.00,VWS V14.01,2013-06-22 00:39:00,
2013-06-21 20:40:00,69.8,54.4,30.23,South,183,0.0,1.0,58,0.00,,---,0.00,VWS V14.01,2013-06-22 00:40:00,
2013-06-21 20:44:00,69.5,54.6,30.23,South,183,0.0,3.0,59,0.00,,---,0.00,VWS V14.01,2013-06-22 00:44:00,
2013-06-21 20:45:00,69.4,54.5,30.23,South,183,0.0,3.0,59,0.00,,---,0.00,VWS V14.01,2013-06-22 00:45:00,
2013-06-21 20:49:00,69.2,55.2,30.24,South,183,0.0,2.0,61,0.00,,---,0.00,VWS V14.01,2013-06-22 00:49:00,
2013-06-21 20:50:00,69.1,54.7,30.24,South,183,0.0,2.0,60,0.00,,---,0.00,VWS V14.01,2013-06-22 00:50:00,
2013-06-21 20:54:00,68.8,54.8,30.24,South,183,0.0,1.0,61,0.00,,---,0.00,VWS V14.01,2013-06-22 00:54:00,
2013-06-21 20:55:00,68.8,54.8,30.24,South,183,0.0,1.0,61,0.00,,---,0.00,VWS V14.01,2013-06-22 00:55:00,
2013-06-21 20:59:00,68.5,55.0,30.24,South,179,0.0,1.0,62,0.00,,---,0.00,VWS V14.01,2013-06-22 00:59:00,
2013-06-21 21:00:00,68.5,55.0,30.24,South,179,0.0,1.0,62,0.00,,---,0.00,VWS V14.01,2013-06-22 01:00:00,
2013-06-21 21:04:00,68.4,54.9,30.24,South,179,0.0,0.0,62,0.00,,---,0.00,VWS V14.01,2013-06-22 01:04:00,
2013-06-21 21:05:00,68.5,55.0,30.24,South,179,0.0,0.0,62,0.00,,---,0.00,VWS V14.01,2013-06-22 01:05:00,
2013-06-21 21:09:00,68.5,55.4,30.24,South,179,0.0,1.0,63,0.00,,---,0.00,VWS V14.01,2013-06-22 01:09:00,
2013-06-21 21:10:00,68.5,55.4,30.24,South,179,0.0,1.0,63,0.00,,---,0.00,VWS V14.01,2013-06-22 01:10:00,
2013-06-21 21:14:00,68.4,55.3,30.24,South,179,0.0,1.0,63,0.00,,---,0.00,VWS V14.01,2013-06-22 01:14:00,
2013-06-21 21:15:00,68.4,55.3,30.24,South,179,0.0,1.0,63,0.00,,---,0.00,VWS V14.01,2013-06-22 01:15:00,
2013-06-21 21:19:00,68.3,55.2,30.24,South,179,0.0,1.0,63,0.00,,---,0.00,VWS V14.01,2013-06-22 01:19:00,
2013-06-21 21:20:00,68.3,55.2,30.24,South,179,0.0,1.0,63,0.00,,---,0.00,VWS V14.01,2013-06-22 01:20:00,
2013-06-21 21:24:00,68.1,55.0,30.24,South,179,0.0,1.0,63,0.00,,---,0.00,VWS V14.01,2013-06-22 01:24:00,
2013-06-21 21:25:00,68.1,55.0,30.24,South,179,1.0,1.0,63,0.00,,---,0.00,VWS V14.01,2013-06-22 01:25:00,
2013-06-21 21:29:00,67.9,55.3,30.24,SSE,166,0.0,3.0,64,0.00,,---,0.00,VWS V14.01,2013-06-22 01:29:00,
2013-06-21 21:30:00,67.9,55.3,30.24,SSE,166,0.0,3.0,64,0.00,,---,0.00,VWS V14.01,2013-06-22 01:30:00,
2013-06-21 21:34:00,67.7,54.7,30.24,SSE,166,0.0,2.0,63,0.00,,---,0.00,VWS V14.01,2013-06-22 01:34:00,
2013-06-21 21:35:00,67.6,54.6,30.24,SSE,166,0.0,2.0,63,0.00,,---,0.00,VWS V14.01,2013-06-22 01:35:00,
2013-06-21 21:39:00,67.5,54.9,30.25,SSE,166,0.0,3.0,64,0.00,,---,0.00,VWS V14.01,2013-06-22 01:39:00,
2013-06-21 21:40:00,67.5,54.9,30.25,SSE,166,0.0,3.0,64,0.00,,---,0.00,VWS V14.01,2013-06-22 01:40:00,
2013-06-21 21:44:00,67.3,54.7,30.25,SSE,166,0.0,3.0,64,0.00,,---,0.00,VWS V14.01,2013-06-22 01:44:00,
2013-06-21 21:45:00,67.3,54.7,30.25,SSE,166,0.0,3.0,64,0.00,,---,0.00,VWS V14.01,2013-06-22 01:45:00,
2013-06-21 21:49:00,67.1,54.5,30.25,SSE,166,0.0,1.0,64,0.00,,---,0.00,VWS V14.01,2013-06-22 01:49:00,
2013-06-21 21:50:00,67.1,54.5,30.25,SSE,166,0.0,1.0,64,0.00,,---,0.00,VWS V14.01,2013-06-22 01:50:00,
2013-06-21 21:54:00,67.0,54.4,30.25,SSE,166,0.0,1.0,64,0.00,,---,0.00,VWS V14.01,2013-06-22 01:54:00,
2013-06-21 21:55:00,66.9,54.3,30.25,SSE,166,1.0,1.0,64,0.00,,---,0.00,VWS V14.01,2013-06-22 01:55:00,
2013-06-21 21:59:00,66.8,54.7,30.25,SSE,166,0.0,2.0,65,0.00,,---,0.00,VWS V14.01,2013-06-22 01:59:00,
2013-06-21 22:00:00,66.8,54.7,30.25,SSE,166,0.0,2.0,65,0.00,,---,0.00,VWS V14.01,2013-06-22 02:00:00,
2013-06-21 22:04:00,66.7,55.0,30.25,SSE,166,0.0,1.0,66,0.00,,---,0.00,VWS V14.01,2013-06-22 02:04:00,
2013-06-21 22:05:00,66.6,54.9,30.25,SSE,166,0.0,1.0,66,0.00,,---,0.00,VWS V14.01,2013-06-22 02:05:00,
2013-06-21 22:09:00,66.5,55.2,30.26,SSE,166,0.0,1.0,67,0.00,,---,0.00,VWS V14.01,2013-06-22 02:09:00,
2013-06-21 22:10:00,66.5,55.2,30.26,SSE,166,0.0,1.0,67,0.00,,---,0.00,VWS V14.01,2013-06-22 02:10:00,
2013-06-21 22:14:00,66.3,55.0,30.26,SSE,166,0.0,0.0,67,0.00,,---,0.00,VWS V14.01,2013-06-22 02:14:00,
2013-06-21 22:15:00,66.3,55.0,30.26,SSE,166,0.0,0.0,67,0.00,,---,0.00,VWS V14.01,2013-06-22 02:15:00,
2013-06-21 22:19:00,66.2,55.3,30.26,SSE,166,0.0,0.0,68,0.00,,---,0.00,VWS V14.01,2013-06-22 02:19:00,
2013-06-21 22:20:00,66.2,55.3,30.26,SSE,166,0.0,0.0,68,0.00,,---,0.00,VWS V14.01,2013-06-22 02:20:00,
2013-06-21 22:24:00,65.9,55.8,30.26,SSE,166,0.0,0.0,70,0.00,,---,0.00,VWS V14.01,2013-06-22 02:24:00,
2013-06-21 22:25:00,65.8,56.2,30.26,SSE,166,0.0,0.0,71,0.00,,---,0.00,VWS V14.01,2013-06-22 02:25:00,
2013-06-21 22:29:00,65.3,56.0,30.26,SSE,166,0.0,2.0,72,0.00,,---,0.00,VWS V14.01,2013-06-22 02:29:00,
2013-06-21 22:30:00,65.3,56.4,30.26,SSE,166,0.0,2.0,73,0.00,,---,0.00,VWS V14.01,2013-06-22 02:30:00,
2013-06-21 22:34:00,65.0,56.5,30.26,SSE,166,0.0,1.0,74,0.00,,---,0.00,VWS V14.01,2013-06-22 02:34:00,
2013-06-21 22:35:00,65.0,56.5,30.26,SSE,166,0.0,1.0,74,0.00,,---,0.00,VWS V14.01,2013-06-22 02:35:00,
2013-06-21 22:39:00,65.0,56.5,30.26,SSE,166,0.0,1.0,74,0.00,,---,0.00,VWS V14.01,2013-06-22 02:39:00,
2013-06-21 22:40:00,65.0,56.5,30.26,SSE,166,0.0,1.0,74,0.00,,---,0.00,VWS V14.01,2013-06-22 02:40:00,
2013-06-21 22:43:00,65.0,56.5,30.26,SSE,166,0.0,0.0,74,0.00,,---,0.00,VWS V14.01,2013-06-22 02:43:00,
2013-06-21 22:45:00,64.9,56.4,30.26,SSE,166,0.0,0.0,74,0.00,,---,0.00,VWS V14.01,2013-06-22 02:45:00,
2013-06-21 22:50:00,64.7,57.0,30.26,SSE,158,0.0,1.0,76,0.00,,---,0.00,VWS V14.01,2013-06-22 02:50:00,
2013-06-21 22:55:00,64.4,57.0,30.26,SSE,158,0.0,1.0,77,0.00,,---,0.00,VWS V14.01,2013-06-22 02:55:00,
2013-06-21 23:00:00,64.4,57.0,30.26,SSE,158,0.0,1.0,77,0.00,,---,0.00,VWS V14.01,2013-06-22 03:00:00,
2013-06-21 23:05:00,64.4,57.0,30.25,SSE,158,0.0,1.0,77,0.00,,---,0.00,VWS V14.01,2013-06-22 03:05:00,
2013-06-21 23:10:00,64.3,57.0,30.25,SSE,158,0.0,0.0,77,0.00,,---,0.00,VWS V14.01,2013-06-22 03:10:00,
2013-06-21 23:15:00,64.3,57.0,30.25,SSE,158,0.0,2.0,77,0.00,,---,0.00,VWS V14.01,2013-06-22 03:15:00,
2013-06-21 23:20:00,64.2,57.2,30.25,SSE,158,0.0,1.0,78,0.00,,---,0.00,VWS V14.01,2013-06-22 03:20:00,
2013-06-21 23:25:00,64.1,57.1,30.26,SSE,158,0.0,1.0,78,0.00,,---,0.00,VWS V14.01,2013-06-22 03:25:00,
2013-06-21 23:30:00,64.0,57.0,30.26,SSE,158,0.0,1.0,78,0.00,,---,0.00,VWS V14.01,2013-06-22 03:30:00,
2013-06-21 23:35:00,63.9,57.3,30.26,SSE,158,0.0,0.0,79,0.00,,---,0.00,VWS V14.01,2013-06-22 03:35:00,
2013-06-21 23:40:00,63.8,57.5,30.25,SSE,158,0.0,1.0,80,0.00,,---,0.00,VWS V14.01,2013-06-22 03:40:00,
2013-06-21 23:45:00,63.7,57.4,30.25,SSE,158,0.0,0.0,80,0.00,,---,0.00,VWS V14.01,2013-06-22 03:45:00,
2013-06-21 23:50:00,63.6,57.7,30.25,SSE,158,0.0,1.0,81,0.00,,---,0.00,VWS V14.01,2013-06-22 03:50:00,
2013-06-21 23:55:00,63.5,57.6,30.25,SSE,158,0.0,0.0,81,0.00,,---,0.00,VWS V14.01,2013-06-22 03:55:00,